Tracking 28126 objects as of 1-Oct-2023
HD Live streaming from Space Station
objects crossing your sky now

STARLINK-4117

Track STARLINK-4117 now!
10-day predictions
STARLINK-4117 is classified as:


NORAD ID: 53169
Int'l Code: 2022-083AP
Perigee: 545.8 km
Apogee: 547.9 km
Inclination: 53.2 °
Period: 95.4 minutes
Semi major axis: 6917 km
RCS: Unknown
Launch date: July 17, 2022
Source: United States (US)
Launch site: AIR FORCE EASTERN TEST RANGE (AFETR)
Your satellite tracking list
Your tracking list is empty




NASA's NSSDC Master Catalog

Two Line Element Set (TLE):
1 53169U 22083AP  23274.01851800 -.00000383  00000-0 -59682-5 0  9991
2 53169  53.2169 187.7564 0001532  90.5846 269.5321 15.08839587 67738
Source of the keplerian elements: AFSPC